Погода в Лосеве

Россия / Воронежская область     50°40′16″N   40°02′07″E
темп.,
°C
ветер,
м/с
пор.,
м/с
влажн.,
%
обл.,
%
осадки,
мм/ч
давл.,
гПа
погр.,
м
11 апреля, вс
вс1100:00+5с386988 0.0 1025187
03:00+4с3107318 0.0 1026246
06:00+4с41371100 0.0 1026328
09:00+8ссв71358100 0.0 1027644
12:00+11ссв81144100 0.0 1026885
15:00+12св8104368 0.0 10261000
18:00+11ссв71148100 0.0 1025859
21:00+9св7118189 0.0 1026626
12 апреля, пн
пн1200:00+9св51087100 0.0 1025323
03:00+7св51196100 0.0 1025255
06:00+7св5119682 0.0 1025262
09:00+14всв6106872 0.0 1025405
12:00+21вюв7103541 0.0 10231073
15:00+23вюв793063 0.0 10231754
18:00+20вюв6114056 0.0 1023479
21:00+16вюв6145066 0.0 1025395
13 апреля, вт
вт1300:00+13вюв514506 0.0 1025312
03:00+11вюв5125586 0.0 1025258
06:00+10вюв41164100 0.0 1025217
09:00+16вюв6104699 0.0 1025534
12:00+20юв8132677 0.0 10241626
15:00+22юв912265 0.0 10232171
18:00+19юв6113629 0.0 1022546
21:00+16вюв6144199 0.0 1023394
14 апреля, ср
ср1400:00+13вюв41249100 0.0 1022267
03:00+11в4105773 0.0 1022185
06:00+10вюв4125883 0.0 1021253
09:00+15юв594292 0.0 1021489
12:00+19юв682599 0.0 10191425
15:00+20ююв5724100 0.0 10182056
18:00+18юв4833100 0.0 1017238
21:00+14вюв494699 0.0 1018171
15 апреля, чт
чт1500:00+12вюв365393 0.0 1017100
03:00+11в2254100 0.0 101615
06:00+11вюв3661100 0.0 1016105
09:00+15юв4647100 0.0 1015400
12:00+19юв4529100 0.0 10141309
15:00+20юв4525100 0.0 10132237
18:00+18юв3638100 0.0 1012213
21:00+15ююв3552100 0.0 101396